Погода в Руднице

Украина / Винницкая область     48°15′32″N   28°56′10″E
темп.,
°C
ветер,
м/с
пор.,
м/с
влажн.,
%
обл.,
%
осадки,
мм/ч
давл.,
гПа
погр.,
м
16 мая, вс
вс1600:00+12вюв22787 0.0 101213
03:00+11в338449 0.0 101238
06:00+10вюв36917 0.0 1011111
09:00+16юв4573100 0.0 1011309
12:00+20ююв565699 0.0 10111080
15:00+22юв5649100 0.0 10091920
18:00+21вюв4660100 0.0 10081008
21:00+17всв2269100 0.2 100716
17 мая, пн
пн1700:00+15вюв1178100 0.2 100711
03:00+14зсз2381100 0.3 100642
06:00+13ссз3388100 0.0 100561
09:00+15ссв2485100 0.1 1005197
12:00+16св237892 0.8 1005351
15:00+19св116134 0.9 10041025
18:00+20ю116230 1.2 1003928
21:00+15ююв22845 1.9 100318
18 мая, вт
вт1800:00+13ююв339199 0.4 100345
03:00+12юв338984 0.4 100336
06:00+12ююв3494100 0.3 100293
09:00+14ю4688100 1.1 1002338
12:00+15ююв4881100 2.5 1002750
15:00+14в578694 2.7 1001782
18:00+15св568885 1.5 1000454
21:00+13ссз5895100 2.8 1002354
19 мая, ср
ср1900:00+12сз3797100 0.7 1002412
03:00+11зсз101696100 12.3 1002750
06:00+11зсз101896100 14.6 10031016
09:00+10зсз101795100 24.2 1005967
12:00+11зсз71391100 5.8 1007921
15:00+16сз8127692 6.9 10081545
18:00+15зсз711772 1.1 10091226
21:00+11з34900 1.1 101153
20 мая, чт
чт2000:00+10з36900 0.0 101292
03:00+9з22905 0.0 101215
06:00+9юз118934 0.0 101211
09:00+15юв117381 0.0 1012310
12:00+17ююв3466100 0.3 1012906
15:00+14сз2291100 3.3 1012234
18:00+13всв1196100 0.9 101226
21:00+12св2297100 1.0 101330